DW3544 Weather Reports


time (UTC)temp
C
wind
direction
speed
KPH
gust
KPH
rain 1hr
cm
rain 24hr
cm
rain mn
cm
humidity
%
barometer
mb
20260510021005 14 114 1.6 9.7 0.00 0.00 0.00 70 1010.0
20260510020503 14 87 3.2 4.8 0.00 0.00 0.00 71 1010.0
20260510020003 14 87 1.6 4.8 0.00 0.00 0.00 72 1009.8
20260510015004 15 87 1.6 3.2 0.00 0.00 0.00 71 1009.7
20260510014502 15 83 1.6 4.8 0.00 0.00 0.00 70 1009.7
20260510014005 15 80 3.2 4.8 0.00 0.00 0.00 69 1009.6
20260510013502 15 76 1.6 4.8 0.00 0.00 0.00 68 1009.6
20260510013004 16 72 1.6 4.8 0.00 0.00 0.00 67 1009.5
20260510012503 16 64 1.6 4.8 0.00 0.00 0.00 66 1009.4
20260510012003 16 59 1.6 3.2 0.00 0.00 0.00 65 1009.2
20260510011503 16 59 0.0 3.2 0.00 0.00 0.00 64 1009.1
20260510011004 17 59 0.0 3.2 0.00 0.00 0.00 63 1009.3
20260510010503 17 59 1.6 3.2 0.00 0.00 0.00 62 1009.1
20260510010003 17 59 1.6 3.2 0.00 0.00 0.00 61 1009.0
20260510005502 17 59 1.6 3.2 0.00 0.00 0.00 60 1008.9
20260510005005 17 59 1.6 3.2 0.00 0.00 0.00 60 1008.7
20260510004503 17 59 0.0 1.6 0.00 0.00 0.00 59 1008.8
20260510003503 18 59 0.0 1.6 0.00 0.00 0.00 58 1008.5
20260510002502 18 59 1.6 4.8 0.00 0.00 0.00 57 1008.3
20260510002004 19 58 1.6 9.7 0.00 0.00 0.00 56 1008.3
20260510001004 20 10 1.6 4.8 0.00 0.00 0.00 53 1008.1
20260510000003 21 262 3.2 6.4 0.00 0.00 0.00 50 1008.1
20260509235003 21 234 3.2 6.4 0.00 0.00 0.00 49 1007.9
20260509234503 22 228 3.2 6.4 0.00 0.00 0.00 48 1008.0
20260509234003 22 224 3.2 6.4 0.00 0.00 0.00 48 1008.1
20260509233003 22 232 4.8 14.5 0.00 0.00 0.00 49 1008.0
20260509232504 21 225 6.4 14.5 0.00 0.00 0.00 49 1007.8
20260509232003 21 226 4.8 11.3 0.00 0.00 0.00 49 1007.7
20260509231503 21 209 4.8 11.3 0.00 0.00 0.00 48 1007.9
20260509231003 22 211 4.8 12.9 0.00 0.00 0.00 47 1007.7
20260509230004 22 221 4.8 11.3 0.00 0.00 0.00 45 1007.6
20260509225503 22 221 4.8 11.3 0.00 0.00 0.00 45 1007.7
20260509225004 22 227 3.2 6.4 0.00 0.00 0.00 45 1007.7
20260509224004 22 221 4.8 9.7 0.00 0.00 0.00 47 1007.7
20260509223503 22 221 6.4 14.5 0.00 0.00 0.00 47 1007.7
20260509223004 22 216 6.4 17.7 0.00 0.00 0.00 46 1007.7
20260509222503 22 207 6.4 17.7 0.00 0.00 0.00 44 1007.5
20260509222004 22 186 4.8 12.9 0.00 0.00 0.00 45 1007.6
20260509221503 21 161 3.2 11.3 0.00 0.00 0.00 47 1007.6
20260509220003 21 179 3.2 11.3 0.00 0.00 0.00 48 1007.7
20260509215503 21 187 3.2 11.3 0.00 0.00 0.00 46 1007.7
20260509214504 21 188 3.2 11.3 0.00 0.00 0.00 47 1007.6
20260509214004 21 173 3.2 11.3 0.00 0.00 0.00 46 1007.6
20260509213503 21 172 3.2 9.7 0.00 0.00 0.00 47 1007.5
20260509213004 21 187 3.2 11.3 0.00 0.00 0.00 47 1007.5
20260509212503 21 189 4.8 12.9 0.00 0.00 0.00 46 1007.5
20260509212003 21 194 4.8 17.7 0.00 0.00 0.00 47 1007.4
20260509211503 21 208 6.4 19.3 0.00 0.00 0.00 46 1007.4
20260509211004 21 219 6.4 20.9 0.00 0.00 0.00 47 1007.4
20260509210005 21 215 6.4 14.5 0.00 0.00 0.00 45 1007.3
20260509205503 21 206 4.8 12.9 0.00 0.00 0.00 46 1007.3
20260509205003 21 198 6.4 20.9 0.00 0.00 0.00 45 1007.3
20260509204503 21 184 6.4 20.9 0.00 0.00 0.00 45 1007.2
20260509204004 21 188 6.4 24.1 0.00 0.00 0.00 46 1007.2
20260509203503 22 201 6.4 24.1 0.00 0.00 0.00 46 1007.3
20260509203004 22 195 6.4 20.9 0.00 0.00 0.00 45 1007.1
20260509202502 22 201 6.4 17.7 0.00 0.00 0.00 46 1007.1
20260509202003 22 202 6.4 17.7 0.00 0.00 0.00 42 1007.1
20260509201503 21 191 6.4 17.7 0.00 0.00 0.00 45 1007.1
20260509201004 21 207 9.7 20.9 0.00 0.00 0.00 42 1007.0
20260509200503 21 208 9.7 20.9 0.00 0.00 0.00 44 1007.2
20260509200004 22 186 6.4 27.4 0.00 0.00 0.00 42 1007.1
20260509194503 22 212 9.7 25.7 0.00 0.00 0.00 44 1007.2
20260509194005 22 211 11.3 25.7 0.00 0.00 0.00 44 1007.4
20260509193503 22 214 9.7 19.3 0.00 0.00 0.00 42 1007.4
20260509193003 22 211 9.7 25.7 0.00 0.00 0.00 45 1007.5
20260509192503 22 201 12.9 30.6 0.00 0.00 0.00 46 1007.6
20260509192004 22 201 11.3 30.6 0.00 0.00 0.00 43 1007.6
20260509191503 22 223 9.7 17.7 0.00 0.00 0.00 49 1007.5
20260509191004 22 200 6.4 19.3 0.00 0.00 0.00 46 1007.6
20260509190503 22 184 9.7 27.4 0.00 0.00 0.00 46 1007.7
20260509190004 22 203 11.3 27.4 0.00 0.00 0.00 45 1007.8
20260509185504 22 203 9.7 25.7 0.00 0.00 0.00 47 1007.8
20260509185004 22 213 11.3 24.1 0.00 0.00 0.00 49 1007.8
20260509184503 22 206 9.7 24.1 0.00 0.00 0.00 49 1008.0
20260509184003 22 173 6.4 17.7 0.00 0.00 0.00 45 1008.1
20260509183503 22 190 6.4 17.7 0.00 0.00 0.00 46 1008.2
20260509182503 21 209 9.7 24.1 0.00 0.00 0.00 45 1008.3
20260509181503 21 199 9.7 30.6 0.00 0.00 0.00 48 1008.5
20260509181005 21 187 6.4 24.1 0.00 0.00 0.00 49 1008.5
20260509180503 21 193 6.4 19.3 0.00 0.00 0.00 49 1008.6
20260509180004 21 204 9.7 25.7 0.00 0.00 0.00 47 1008.7
20260509175503 21 202 9.7 25.7 0.00 0.00 0.00 53 1008.8
20260509175004 20 179 6.4 17.7 0.00 0.00 0.00 53 1008.9
20260509174503 20 175 4.8 17.7 0.00 0.00 0.00 50 1008.7
20260509173503 20 166 3.2 14.5 0.00 0.00 0.00 49 1008.9
20260509173003 20 185 3.2 12.9 0.00 0.00 0.00 52 1008.8
20260509172503 20 189 3.2 12.9 0.00 0.00 0.00 49 1009.0
20260509172004 20 195 3.2 11.3 0.00 0.00 0.00 51 1009.1
20260509171503 20 229 4.8 14.5 0.00 0.00 0.00 52 1009.3
20260509171004 19 243 6.4 14.5 0.00 0.00 0.00 52 1009.3
20260509170503 19 239 6.4 14.5 0.00 0.00 0.00 50 1009.3
20260509170004 19 233 6.4 16.1 0.00 0.00 0.00 50 1009.4
20260509165503 19 235 11.3 19.3 0.00 0.00 0.00 47 1009.3
20260509165004 20 228 9.7 19.3 0.00 0.00 0.00 48 1009.2
20260509164503 20 194 4.8 14.5 0.00 0.00 0.00 48 1009.2
20260509164004 20 176 4.8 16.1 0.00 0.00 0.00 50 1009.2
20260509163504 20 177 4.8 16.1 0.00 0.00 0.00 54 1009.2
20260509163004 20 194 6.4 14.5 0.00 0.00 0.00 49 1009.1
20260509162503 20 193 6.4 16.1 0.00 0.00 0.00 51 1009.1
20260509162004 20 208 9.7 24.1 0.00 0.00 0.00 52 1009.2
20260509161503 19 217 9.7 24.1 0.00 0.00 0.00 52 1009.2
20260509161004 20 212 9.7 19.3 0.00 0.00 0.00 49 1009.1
20260509160503 20 221 9.7 16.1 0.00 0.00 0.00 52 1009.2
20260509160003 20 228 9.7 19.3 0.00 0.00 0.00 56 1009.2
20260509155503 19 226 11.3 19.3 0.00 0.00 0.00 55 1009.1
20260509155004 19 231 11.3 19.3 0.00 0.00 0.00 52 1009.1
20260509154503 19 245 9.7 17.7 0.00 0.00 0.00 51 1009.1
20260509154004 19 235 9.7 16.1 0.00 0.00 0.00 51 1009.1
20260509153504 19 217 6.4 19.3 0.00 0.00 0.00 51 1009.0
20260509152503 19 222 9.7 17.7 0.00 0.00 0.00 49 1009.0
20260509152004 19 229 6.4 17.7 0.00 0.00 0.00 49 1008.9
20260509151004 19 224 9.7 19.3 0.00 0.00 0.00 50 1008.9
20260509150004 20 213 6.4 20.9 0.00 0.00 0.00 53 1009.1
20260509145503 19 225 9.7 20.9 0.00 0.00 0.00 52 1009.1
20260509145003 20 214 6.4 19.3 0.00 0.00 0.00 51 1009.0
20260509144503 20 183 4.8 14.5 0.00 0.00 0.00 52 1009.2
20260509144004 19 178 6.4 17.7 0.00 0.00 0.00 53 1009.1
20260509143503 19 178 6.4 17.7 0.00 0.00 0.00 54 1009.1
20260509143004 18 186 6.4 19.3 0.00 0.00 0.00 55 1009.2
20260509142003 18 195 9.7 25.7 0.00 0.00 0.00 57 1009.5
20260509141503 17 187 9.7 24.1 0.00 0.00 0.00 57 1009.6
20260509141004 17 181 9.7 27.4 0.00 0.00 0.00 59 1009.7
20260509140503 17 189 9.7 27.4 0.00 0.00 0.00 56 1009.7
20260509140005 17 192 9.7 20.9 0.00 0.00 0.00 58 1009.8
20260509135503 17 190 11.3 29.0 0.00 0.00 0.00 57 1009.9
20260509135004 17 192 9.7 29.0 0.00 0.00 0.00 58 1010.0
20260509134504 17 196 9.7 25.7 0.00 0.00 0.00 58 1010.1
20260509134003 16 199 11.3 29.0 0.00 0.00 0.00 58 1010.0
20260509133504 16 207 12.9 32.2 0.00 0.00 0.00 57 1010.1
20260509133004 16 210 14.5 33.8 0.00 0.00 0.00 57 1010.1
20260509132004 16 208 12.9 30.6 0.00 0.00 0.00 57 1010.1
20260509131004 16 205 11.3 30.6 0.00 0.00 0.00 57 1010.0
20260509130503 16 200 9.7 25.7 0.00 0.00 0.00 58 1010.0
20260509130005 16 192 6.4 20.9 0.00 0.00 0.00 57 1010.0
20260509125503 16 195 9.7 19.3 0.00 0.00 0.00 58 1009.8
20260509125004 16 213 9.7 17.7 0.00 0.00 0.00 58 1009.9
20260509124504 15 221 6.4 17.7 0.00 0.00 0.00 58 1010.0
20260509124004 15 221 9.7 20.9 0.00 0.00 0.00 60 1009.9
20260509123503 15 227 9.7 20.9 0.00 0.00 0.00 60 1009.9
20260509123004 15 234 9.7 17.7 0.00 0.00 0.00 59 1010.0
20260509122503 14 249 9.7 19.3 0.00 0.00 0.00 59 1010.1
20260509122004 15 247 12.9 25.7 0.00 0.00 0.00 57 1010.0
20260509121004 15 213 11.3 27.4 0.00 0.00 0.00 56 1010.1
20260509120004 15 207 6.4 19.3 0.00 0.00 0.00 55 1010.0
20260509115503 15 211 9.7 20.9 0.00 0.00 0.00 55 1009.9
20260509115004 15 212 9.7 20.9 0.00 0.00 0.00 56 1009.9
20260509114503 14 220 9.7 19.3 0.00 0.00 0.00 57 1010.0
20260509114004 14 232 9.7 19.3 0.00 0.00 0.00 56 1010.0
20260509113503 15 231 9.7 19.3 0.00 0.00 0.00 56 1010.0
20260509112503 15 226 4.8 19.3 0.00 0.00 0.00 55 1010.1
20260509112003 15 216 4.8 19.3 0.00 0.00 0.00 55 1010.1
20260509111503 15 219 4.8 14.5 0.00 0.00 0.00 54 1010.0
20260509111004 15 223 6.4 24.1 0.00 0.00 0.00 52 1010.0
20260509110503 15 215 9.7 24.1 0.00 0.00 0.00 52 1010.0
20260509110004 15 212 9.7 24.1 0.00 0.00 0.00 51 1010.1
20260509105503 15 206 6.4 16.1 0.00 0.00 0.00 51 1009.9
20260509105003 15 188 6.4 17.7 0.00 0.00 0.00 51 1010.0
20260509104503 15 184 6.4 17.7 0.00 0.00 0.00 51 1009.9
20260509104004 15 186 6.4 24.1 0.00 0.00 0.00 51 1009.9
20260509103503 15 187 6.4 24.1 0.00 0.00 0.00 51 1010.0
20260509103004 15 179 4.8 16.1 0.00 0.00 0.00 51 1010.0
20260509102504 15 178 4.8 14.5 0.00 0.00 0.00 50 1010.0
20260509102004 15 205 6.4 20.9 0.00 0.00 0.00 50 1009.9
20260509101503 15 209 9.7 20.9 0.00 0.00 0.00 49 1010.0
20260509101004 15 201 6.4 19.3 0.00 0.00 0.00 49 1010.0
20260509100503 15 203 9.7 33.8 0.00 0.00 0.00 48 1010.1
20260509100005 15 195 9.7 33.8 0.00 0.00 0.00 49 1010.0
20260509095503 15 186 6.4 25.7 0.00 0.00 0.00 49 1009.9
20260509095004 15 187 6.4 17.7 0.00 0.00 0.00 48 1009.9
20260509094503 15 189 6.4 19.3 0.00 0.00 0.00 48 1010.0
20260509094004 15 195 6.4 20.9 0.00 0.00 0.00 48 1010.1
20260509093503 15 197 6.4 24.1 0.00 0.00 0.00 47 1010.0
20260509093004 15 195 6.4 24.1 0.00 0.00 0.00 47 1010.1
20260509092003 15 196 9.7 30.6 0.00 0.00 0.00 46 1010.3
20260509091503 15 187 9.7 24.1 0.00 0.00 0.00 46 1010.2
20260509091004 15 179 6.4 24.1 0.00 0.00 0.00 46 1010.1
20260509090503 15 177 6.4 27.4 0.00 0.00 0.00 45 1010.1
20260509090004 15 179 6.4 27.4 0.00 0.00 0.00 45 1010.1
20260509085504 15 192 4.8 17.7 0.00 0.00 0.00 45 1010.2
20260509085004 15 195 6.4 20.9 0.00 0.00 0.00 45 1010.3
20260509084503 15 189 6.4 20.9 0.00 0.00 0.00 45 1010.3
20260509084004 15 186 6.4 25.7 0.00 0.00 0.00 44 1010.3
20260509083503 15 186 6.4 25.7 0.00 0.00 0.00 44 1010.3
20260509083004 15 183 6.4 25.7 0.00 0.00 0.00 44 1010.4
20260509082003 15 188 9.7 27.4 0.00 0.00 0.00 43 1010.5
20260509081503 15 198 9.7 27.4 0.00 0.00 0.00 43 1010.6
20260509080503 15 191 9.7 40.2 0.00 0.00 0.00 44 1010.6
20260509080004 15 196 9.7 40.2 0.00 0.00 0.00 43 1010.6
20260509075503 15 193 9.7 25.7 0.00 0.00 0.00 43 1010.5
20260509075005 15 187 9.7 25.7 0.00 0.00 0.00 43 1010.6
20260509074504 15 195 11.3 29.0 0.00 0.00 0.00 43 1010.6
20260509073503 16 203 14.5 35.4 0.00 0.00 0.00 42 1010.7
20260509073004 16 203 14.5 35.4 0.00 0.00 0.00 41 1010.9
20260509072504 16 203 14.5 40.2 0.00 0.00 0.00 42 1010.8
20260509072005 16 201 14.5 40.2 0.00 0.00 0.00 42 1010.9
20260509071004 16 197 11.3 30.6 0.00 0.00 0.00 41 1010.8
20260509070503 16 196 11.3 33.8 0.00 0.00 0.00 42 1010.9
20260509065503 16 187 6.4 24.1 0.00 0.00 0.00 42 1010.9
20260509065004 16 184 6.4 24.1 0.00 0.00 0.00 41 1010.9
20260509064503 16 185 9.7 20.9 0.00 0.00 0.00 42 1010.8
20260509064004 16 184 6.4 20.9 0.00 0.00 0.00 41 1010.9
20260509063503 15 181 6.4 19.3 0.00 0.00 0.00 41 1010.8
20260509063005 16 179 6.4 27.4 0.00 0.00 0.00 42 1011.0
20260509062504 16 176 9.7 27.4 0.00 0.00 0.00 42 1011.1
20260509062004 15 176 9.7 27.4 0.00 0.00 0.00 42 1011.1
20260509061504 15 178 6.4 27.4 0.00 0.00 0.00 42 1011.1
20260509061005 15 176 6.4 19.3 0.00 0.00 0.00 41 1011.1
20260509060503 16 177 9.7 24.1 0.00 0.00 0.00 41 1011.2
20260509060005 15 185 9.7 25.7 0.00 0.00 0.00 41 1011.3
20260509055502 15 195 9.7 29.0 0.00 0.00 0.00 41 1011.3
20260509055003 15 199 11.3 29.0 0.00 0.00 0.00 42 1011.3
20260509054502 15 201 6.4 25.7 0.00 0.00 0.00 43 1011.5
20260509054003 15 202 6.4 20.9 0.00 0.00 0.00 43 1011.5
20260509053502 15 202 6.4 20.9 0.00 0.00 0.00 43 1011.5
20260509053003 15 206 9.7 20.9 0.00 0.00 0.00 44 1011.5
20260509052502 15 215 9.7 25.7 0.00 0.00 0.00 45 1011.5
20260509052002 15 222 11.3 25.7 0.00 0.00 0.00 45 1011.4
20260509051501 14 223 11.3 19.3 0.00 0.00 0.00 46 1011.6
20260509051003 14 227 11.3 17.7 0.00 0.00 0.00 48 1011.5
20260509050502 14 227 11.3 20.9 0.00 0.00 0.00 48 1011.6
20260509050002 14 226 11.3 20.9 0.00 0.00 0.00 47 1011.5
20260509045003 13 232 9.7 16.1 0.00 0.00 0.00 50 1011.5
20260509044502 13 238 9.7 14.5 0.00 0.00 0.00 49 1011.5
20260509044002 14 239 6.4 14.5 0.00 0.00 0.00 48 1011.4
20260509043502 14 234 6.4 14.5 0.00 0.00 0.00 48 1011.4
20260509041502 15 216 9.7 25.7 0.00 0.00 0.00 43 1011.2
20260509041003 16 215 11.3 24.1 0.00 0.00 0.00 44 1011.3
20260509040502 15 219 9.7 20.9 0.00 0.00 0.00 44 1011.3
20260509040005 15 222 6.4 20.9 0.00 0.00 0.00 45 1011.3
20260509035503 15 219 6.4 17.7 0.00 0.00 0.00 45 1011.4
20260509035003 16 216 6.4 19.3 0.00 0.00 0.00 44 1011.3
20260509033003 16 189 6.4 17.7 0.00 0.00 0.00 44 1011.4
20260509032502 15 181 4.8 17.7 0.00 0.00 0.00 45 1011.4
20260509032003 15 182 4.8 16.1 0.00 0.00 0.00 44 1011.4
20260509031502 15 181 3.2 16.1 0.00 0.00 0.00 45 1011.4
20260509031003 15 188 3.2 11.3 0.00 0.00 0.00 45 1011.5
20260509030502 15 188 4.8 19.3 0.00 0.00 0.00 45 1011.4
20260509030003 15 196 4.8 19.3 0.00 0.00 0.00 45 1011.5
20260509025004 16 192 4.8 16.1 0.00 0.00 0.00 44 1011.6
20260509024003 16 202 6.4 24.1 0.00 0.00 0.00 43 1011.6
20260509023502 16 215 11.3 29.0 0.00 0.00 0.00 43 1011.6
20260509023003 16 216 11.3 29.0 0.00 0.00 0.00 43 1011.6
20260509022502 16 213 9.7 20.9 0.00 0.00 0.00 43 1011.6
20260509022003 16 218 11.3 20.9 0.00 0.00 0.00 45 1011.6
20260509021502 16 218 9.7 20.9 0.00 0.00 0.00 46 1011.6